Location: Dal�� Lhota
(48.7500°N, 14.0167°E)
Time: 09:17:23
(UTC+00:00)

Explorer 7 - Pass Details

Date: 09 August 2021
Orbit: 484 x 676 km, 50.3° (Epoch: 21 September)

Event Time Altitude Azimuth Distance (km) Brightness Sun altitude
Rises 00:49:44 0° 214° (SW) 2,542 - -21.7°
Reaches altitude 10° 00:52:07 10° 202° (SSW) 1,659 - -21.5°
Maximum altitude 00:55:16 26° 144° (SE) 986 - -21.3°
Exits shadow 00:56:08 24° 120° (ESE) 1,056 8.2 -21.2°
Drops below altitude 10° 00:58:26 10° 87° (E) 1,678 9.7 -21.0°
Sets 01:00:52 0° 74° (ENE) 2,578 10.9 -20.8°
